Tucson Davis Monthan, AZ

10:43 PM MST on September 20, 2019 (GMT -0700)
Davis-Monthan Air Force Base

Weather History for KDMA - May, 2019

Change the Weather History Date:

Thursday, May 23, 2019

  Actual Average Record
Temperature  
Mean Temperature 64 °F -  
Max Temperature 74 °F 93 °F 106 °F (1984)
Min Temperature 55 °F 60 °F 47 °F (1965)
Growing Degree Days 14 (Base 50)    
Moisture  
Dew Point 35 °F    
Average Humidity 38    
Maximum Humidity 59    
Minimum Humidity 18    
Precipitation  
Precipitation 0.00 in - - ()
Sea Level Pressure  
Sea Level Pressure 29.83 in    
Wind  
Wind Speed 7 mph (WSW)    
Max Wind Speed 13 mph    
Max Gust Speed 21 mph    
Visibility 10 miles    
Events Rain    
Averages and records for this station are not official NWS values.
T = Trace of Precipitation, MM = Missing Value Source: NWS Daily Summary

Daily Weather History Graph

Daily Weather History Graph

Search for Another Location

Airport or City:

Astronomy

May. 23, 2019 Rise Set
Actual Time 5:21 AM MST 7:19 PM MST
Civil Twilight 4:53 AM MST 7:47 PM MST
Nautical Twilight 4:20 AM MST 8:20 PM MST
Astronomical Twilight 3:45 AM MST 8:55 PM MST
Moon 11:48 PM MST (5/23) 9:29 AM MST (5/23)
Length of Visible Light 14h 53m
Length of Day
13h 58m
Waning Gibbous, 76% of the Moon is Illuminated
May 23
Waning Gibbous
May 26
Last Quarter
Jun 3
New
Jun 9
First Quarter
Jun 17
Full

Hourly Weather History & Observations

Time (MST) Temp. Dew Point Humidity Pressure Visibility Wind Dir Wind Speed Gust Speed Precip Events Conditions
12:58 AM 56.8 °F 38.5 °F 50% 29.71 in 10.0 mi SW 5.8 mph - N/A   Clear
1:58 AM 56.7 °F 38.7 °F 51% 29.72 in 10.0 mi SW 6.9 mph - N/A   Overcast
2:58 AM 57.6 °F 39.0 °F 50% 29.74 in 10.0 mi West 8.1 mph - N/A   Overcast
2:59 AM 57.2 °F 39.2 °F 51% 29.73 in 10.0 mi WSW 8.1 mph - N/A   Light Drizzle
3:05 AM 57.2 °F 41.0 °F 55% 29.74 in 10.0 mi WSW 12.7 mph - N/A   Overcast
3:10 AM 57.2 °F 41.0 °F 55% 29.74 in 10.0 mi WSW 10.4 mph - N/A   Light Drizzle
3:19 AM 57.2 °F 41.0 °F 55% 29.74 in 10.0 mi SW 12.7 mph 16.1 mph N/A   Overcast
3:24 AM 57.2 °F 41.0 °F 55% 29.74 in 10.0 mi SSW 10.4 mph - N/A Rain Light Rain
3:41 AM 57.2 °F 42.8 °F 59% 29.76 in 10.0 mi SSW 9.2 mph - N/A   Overcast
3:58 AM 56.8 °F 40.8 °F 55% 29.76 in 10.0 mi SW 6.9 mph - 0.00 in   Overcast
4:58 AM 56.3 °F 38.5 °F 51% 29.78 in 10.0 mi South 9.2 mph - N/A   Scattered Clouds
5:58 AM 55.2 °F 37.9 °F 52% 29.81 in 10.0 mi SW 10.4 mph - N/A   Partly Cloudy
6:58 AM 57.0 °F 38.5 °F 50% 29.86 in 10.0 mi SW 12.7 mph 20.7 mph N/A   Scattered Clouds
7:58 AM 59.0 °F 37.8 °F 45% 29.88 in 10.0 mi SW 9.2 mph 16.1 mph N/A   Partly Cloudy
8:58 AM 60.6 °F 36.1 °F 40% 29.91 in 10.0 mi Calm Calm - N/A   Partly Cloudy
9:58 AM 62.4 °F 35.8 °F 37% 29.92 in 8.0 mi South 4.6 mph - N/A   Scattered Clouds
10:58 AM 64.8 °F 35.1 °F 33% 29.93 in 10.0 mi Calm Calm - N/A   Partly Cloudy
11:58 AM 67.1 °F 33.8 °F 29% 29.92 in 10.0 mi WNW 3.5 mph - N/A   Clear
12:58 PM 69.3 °F 32.9 °F 26% 29.92 in 10.0 mi NNW 8.1 mph - N/A   Partly Cloudy
1:58 PM 70.7 °F 31.1 °F 23% 29.90 in 10.0 mi Calm Calm - N/A   Clear
2:58 PM 73.6 °F 30.0 °F 20% 29.87 in 10.0 mi East 4.6 mph - N/A   Clear
3:58 PM 74.3 °F 28.0 °F 18% 29.86 in 10.0 mi NW 4.6 mph - N/A   Clear
4:58 PM 74.3 °F 28.0 °F 18% 29.86 in 10.0 mi NW 5.8 mph - N/A   Clear
5:58 PM 74.3 °F 28.0 °F 18% 29.85 in 10.0 mi NNW 10.4 mph - N/A   Clear
6:58 PM 72.5 °F 27.9 °F 19% 29.85 in 10.0 mi North 10.4 mph - N/A   Clear
7:58 PM 69.1 °F 26.2 °F 20% 29.86 in 10.0 mi NW 8.1 mph - N/A   Clear
8:58 PM 66.6 °F 26.6 °F 22% 29.88 in 10.0 mi NNW 5.8 mph - N/A   Clear
9:58 PM 65.1 °F 27.5 °F 24% 29.90 in 10.0 mi NW 6.9 mph - N/A   Clear
10:58 PM 63.1 °F 27.7 °F 26% 29.88 in 10.0 mi NNW 3.5 mph - N/A   Clear
11:58 PM 58.3 °F 27.9 °F 31% 29.88 in 9.0 mi SW 4.6 mph - N/A   Clear